Powrót do katalogu

COSMOS 249 DEB

AktywnyLEO
NORAD 3874·DEBRIS·🇷🇺 Russia

Wystrzelony Oct 20, 1968 z Baikonur Cosmodrome

Loading…

Następne Przeloty (najbliższe 24 godziny)

TLE

ŚwieżeSource: Space-Track

Epoka: Sep 14, 2026, 00:08 UTC

1 03874U 68091BH  26257.00566491  .00000662  00000-0  69892-3 0  9990
2 03874  62.2529 107.8389 0604964 211.9155 144.3835 13.21054369712405

Śledź COSMOS 249 DEB w czasie rzeczywistym z AllMySat

Download on the App Store